Theta_e
306 307 307 308 307 305 301 296 298 314 311 299 298 295 302 305 307 309 306 306 307 304 303 301 302 302 304 309 306 301 302 296 292 296 302 304 298 294 290 285 285 288 287 287
306 306 306 307 307 306 299 291 296 309 309 294 294 300 307 308 309 308 305 303 306 306 301 296 303 304 308 311 307 303 301 293 288 291 295 300 299 301 295 292 289 287 284 286
306 306 306 307 307 307 298 293 295 301 304 301 297 299 302 304 311 306 306 305 306 303 300 302 300 302 307 308 305 313 306 295 291 287 290 297 296 300 298 292 284 287 288 292
306 306 306 306 307 306 298 297 298 299 293 296 297 297 303 304 304 307 305 301 303 301 297 298 300 303 303 304 309 303 298 292 295 297 300 299 297 298 297 292 292 288 291 294
305 305 306 306 306 306 302 296 295 299 297 298 296 296 297 302 303 303 302 300 302 302 297 300 298 301 299 298 300 298 298 292 295 294 300 300 298 299 297 296 294 296 297 294
305 305 305 306 306 304 294 297 299 297 296 295 294 294 298 299 301 305 309 307 303 302 305 307 305 304 303 302 299 297 297 294 291 288 298 297 290 295 296 295 297 297 292 295
304 304 305 305 306 306 296 295 295 294 292 296 297 300 300 299 300 302 306 309 303 308 310 305 305 303 304 304 302 302 297 294 292 288 291 282 294 301 300 296 298 299 299 299
303 304 304 304 305 306 302 296 294 299 293 297 298 298 298 299 300 300 303 311 311 309 305 299 296 295 296 301 304 301 301 296 288 286 285 292 296 299 296 292 293 299 299 298
303 304 304 304 304 305 300 296 302 299 295 292 300 297 298 294 294 297 303 310 310 307 301 297 290 289 295 295 298 303 301 298 291 287 283 282 293 301 302 298 286 299 301 298
302 303 304 304 304 304 302 297 301 299 295 297 297 294 294 299 295 294 300 301 303 303 297 293 291 292 298 292 292 293 292 293 289 285 282 291 299 303 302 288 288 299 301 300
302 303 303 304 304 304 302 297 302 299 293 295 299 300 295 296 295 292 296 299 300 297 293 293 293 292 294 293 297 295 292 290 289 289 285 285 303 301 294 295 298 301 299 298
302 302 302 304 303 303 304 293 299 301 293 294 299 300 302 301 300 295 296 297 300 303 295 294 294 293 293 292 288 299 292 294 291 292 291 299 304 301 302 301 300 300 299 299
302 302 302 302 304 303 302 298 296 295 291 292 292 294 299 301 301 303 295 299 304 301 304 302 298 293 294 290 291 295 299 302 297 295 301 303 304 304 304 304 302 302 302 300
302 302 302 302 303 303 302 297 297 295 295 287 290 300 297 303 300 302 304 302 303 304 303 301 296 293 298 293 296 295 298 300 298 298 302 305 305 303 305 304 304 303 302 301
302 302 302 302 303 303 299 296 297 299 294 289 289 295 298 298 297 299 303 302 299 299 297 297 295 298 295 295 295 293 300 297 295 293 304 302 303 304 306 303 302 302 301 299
302 302 302 302 303 302 293 289 298 298 301 293 286 294 295 297 298 303 301 302 301 299 298 298 299 301 298 291 290 297 300 302 303 302 305 305 307 307 306 304 301 302 302 300
302 302 302 302 302 294 289 289 298 302 299 295 287 288 296 297 296 300 300 301 301 299 296 296 296 297 297 292 289 298 302 304 305 307 308 304 306 304 305 304 303 304 302 300
302 302 302 302 302 299 293 295 299 300 296 297 286 287 289 296 295 295 299 297 297 296 297 297 295 297 296 291 296 299 303 306 307 306 306 306 305 305 304 304 303 300 299 298
302 301 302 296 295 287 289 301 304 299 297 290 289 284 282 296 294 296 296 297 292 296 294 294 296 292 291 296 298 300 302 304 305 307 307 306 305 303 302 301 301 299 298 298
301 295 289 287 289 301 303 295 290 291 294 290 289 288 284 291 293 293 293 296 294 288 293 295 293 294 296 300 301 302 303 303 306 304 302 303 302 302 301 300 301 300 299 298
290 286 286 292 304 295 292 286 286 288 287 289 288 288 285 291 290 289 295 292 296 289 291 292 289 288 296 300 302 303 303 305 307 308 308 307 305 303 302 302 302 301 300 299
291 292 295 293 291 290 284 284 287 286 284 286 285 287 289 288 294 292 296 293 294 289 295 290 288 291 297 300 303 305 304 306 306 306 306 306 306 305 304 303 302 301 300 299
293 291 288 287 287 282 281 281 282 283 287 288 290 288 289 289 293 291 293 289 288 296 289 288 290 295 299 300 303 304 305 307 307 306 307 307 307 307 305 302 302 301 300 300
287 286 278 280 281 284 285 286 287 292 290 290 291 289 289 291 289 290 288 291 291 287 286 286 292 296 299 301 302 304 304 306 306 306 306 306 306 305 304 303 301 300 299 299
286 287 278 281 287 290 291 292 291 294 293 292 292 291 293 290 287 289 288 287 286 287 286 290 296 299 301 302 303 304 305 305 305 306 305 305 303 302 301 301 301 300 300 300
288 286 283 285 284 284 288 287 288 296 293 293 296 291 288 289 287 284 285 286 285 288 293 297 298 299 301 301 303 306 306 305 303 304 303 303 302 301 300 300 300 300 300 300
285 283 287 286 285 284 287 289 290 297 294 289 291 287 287 292 286 286 288 286 293 296 298 300 300 300 303 304 305 306 305 302 302 301 302 302 302 301 300 297 297 298 299 300
Wind_Speed
23 24 25 27 27 31 9 5 2 4 5 4 1 3 5 5 11 11 3 3 2 1 4 5 3 4 2 2 5 5 1 6 2 2 6 3 4 2 5 7 3 1 3 7
23 24 25 26 27 20 6 4 5 6 6 2 3 6 5 5 14 10 3 2 2 1 1 3 4 4 6 6 5 7 4 3 4 9 8 6 5 0 5 6 4 4 4 7
22 24 25 27 28 25 2 2 5 6 5 1 2 5 5 4 9 6 4 1 3 6 2 2 4 4 6 4 4 8 9 4 7 9 7 3 2 2 1 7 5 4 6 4
22 23 25 27 30 33 4 2 3 2 4 5 6 3 4 5 6 7 5 1 3 3 2 2 5 4 2 6 2 5 6 4 2 2 3 2 2 6 7 5 5 7 5 10
22 22 24 26 29 31 3 3 4 6 4 5 6 4 5 3 8 5 9 3 7 1 4 5 6 8 4 4 1 3 3 2 2 3 4 6 5 6 7 5 5 8 10 6
21 21 21 23 24 18 4 4 4 2 5 6 4 3 7 9 8 7 1 2 5 6 3 6 5 5 6 10 10 4 5 5 4 4 2 4 5 3 3 3 3 12 6 8
19 20 20 20 20 16 1 3 2 3 4 3 4 9 10 15 12 6 2 4 6 2 4 3 8 9 8 7 4 7 6 5 3 4 4 1 9 5 3 7 5 5 10 16
18 18 19 19 18 18 5 3 2 3 4 5 8 14 7 13 10 7 1 2 2 1 7 5 6 5 3 2 3 5 7 6 3 5 3 5 6 3 5 5 2 2 11 12
17 18 17 17 17 18 5 3 3 3 2 4 5 7 4 4 6 8 6 6 6 5 4 3 4 4 6 3 3 5 7 6 7 3 4 6 7 2 6 6 4 3 13 16
16 17 17 16 17 17 8 4 3 2 3 4 4 1 3 5 5 4 4 8 7 5 3 2 3 4 5 5 9 5 2 3 6 3 3 7 8 5 4 7 9 4 9 12
15 15 17 15 15 16 8 6 4 3 3 8 7 6 3 4 2 2 6 4 5 4 4 4 4 3 5 4 5 8 8 7 4 3 3 7 4 3 10 7 3 8 6 6
15 13 14 15 14 14 11 3 4 4 4 7 4 12 16 14 15 1 4 3 3 1 2 1 1 2 2 6 3 1 3 9 7 9 9 6 4 6 4 6 9 5 9 9
14 12 13 14 14 13 9 5 4 3 3 6 3 11 12 11 16 14 4 4 2 3 3 2 3 2 5 4 4 3 3 4 4 5 2 6 6 5 6 10 7 8 10 16
13 13 13 13 13 12 11 4 3 1 4 4 8 4 9 9 8 11 15 8 2 3 3 2 2 3 3 5 5 5 6 5 5 1 4 4 4 4 9 7 11 12 13 14
13 13 13 13 13 12 7 5 5 6 2 4 8 14 15 10 7 10 11 12 4 2 1 2 4 3 2 2 3 1 4 7 6 7 11 8 9 7 12 15 12 11 15 10
14 14 13 13 11 9 3 4 3 2 2 2 6 6 8 7 5 6 9 9 5 4 5 4 5 5 4 3 3 5 3 6 9 7 10 8 12 15 11 13 13 12 15 15
14 13 13 12 11 1 2 5 3 9 4 3 5 6 7 6 5 1 3 3 4 5 3 4 3 3 4 4 5 5 3 5 4 6 11 8 12 11 11 14 11 14 13 12
12 11 11 11 11 9 6 8 13 3 3 3 3 7 6 1 2 2 2 3 2 1 5 2 4 3 1 4 8 5 5 7 7 5 4 7 11 12 10 13 16 15 13 12
9 9 11 4 3 3 5 11 6 4 2 3 2 3 5 7 4 1 2 4 2 3 5 4 3 3 8 8 8 7 7 9 9 6 12 15 16 14 14 15 13 15 12 11
6 1 1 3 5 10 6 3 3 2 3 2 4 2 5 4 4 3 2 1 3 3 7 4 7 11 4 6 8 9 8 10 12 13 10 12 13 15 16 13 12 14 14 12
1 2 4 4 8 3 1 4 4 4 3 4 5 8 6 4 1 2 2 1 2 3 5 7 5 6 11 9 9 8 9 11 16 18 19 20 21 17 13 13 14 14 15 13
5 3 3 2 2 4 4 4 4 5 6 4 5 6 7 5 3 2 1 1 2 6 6 3 7 4 9 13 14 12 9 12 13 14 16 16 18 17 14 13 13 14 13 11
2 1 3 3 3 5 5 5 4 4 5 5 5 4 5 3 1 2 4 5 5 1 2 5 4 7 5 8 11 7 9 16 15 11 15 17 18 16 14 10 11 14 12 11
2 3 4 4 4 4 2 3 3 6 5 6 3 3 5 4 3 4 3 5 1 2 4 6 3 7 9 5 8 8 10 15 17 16 17 17 16 12 12 13 14 14 13 11
2 3 4 5 4 3 5 4 3 3 3 3 5 1 3 1 3 3 3 3 5 5 5 3 3 7 7 12 7 10 14 14 15 14 12 15 15 15 12 12 12 11 11 11
3 4 3 5 3 2 3 2 3 4 2 5 1 2 3 4 3 4 6 3 6 5 4 4 3 4 10 9 8 13 15 14 13 14 16 16 16 16 13 12 11 11 12 11
3 4 4 6 6 6 3 1 3 3 4 2 3 4 4 2 3 3 4 2 3 3 3 3 4 4 9 13 5 16 16 15 16 16 15 15 15 16 14 12 6 8 8 7
Wind_Direction
351 348 346 347 349 346 24 347 346 288 24 67 141 192 207 256 270 321 312 103 88 103 332 345 80 116 126 67 128 105 51 129 130 209 276 191 150 154 119 117 261 194 155 267
351 351 348 348 347 2 327 330 276 310 100 169 271 284 277 254 272 260 249 318 331 135 238 58 82 72 357 66 83 147 189 30 50 352 352 353 75 238 126 106 79 199 141 266
350 352 350 347 340 341 151 351 347 322 29 70 61 349 277 281 299 226 140 132 59 23 12 145 148 110 37 39 92 85 82 104 151 188 206 193 297 275 289 124 117 212 217 131
352 352 352 350 343 342 119 118 296 348 334 332 331 247 276 324 346 358 32 22 157 142 299 330 117 93 103 26 63 66 93 130 124 214 290 347 261 299 238 166 193 154 219 160
352 353 355 354 351 342 34 48 18 342 294 300 331 327 352 337 332 354 329 352 293 92 171 207 168 133 126 170 20 83 31 198 112 301 334 358 312 290 247 206 136 66 110 70
350 352 355 357 1 6 6 322 339 110 293 336 4 33 320 314 338 289 248 265 79 58 307 134 151 134 163 161 140 142 129 126 87 253 344 16 348 290 135 122 60 137 168 190
346 350 352 358 359 12 321 289 332 14 289 323 5 326 323 337 310 264 95 25 103 292 298 56 59 73 99 124 135 126 126 112 116 205 37 236 237 296 130 99 54 123 103 140
343 345 348 354 356 352 347 271 322 317 293 341 304 351 327 318 332 348 358 132 186 222 55 57 54 355 64 263 107 158 139 120 100 143 186 281 306 236 160 151 67 131 123 116
341 340 343 348 351 348 342 269 275 296 321 240 3 320 332 333 325 336 355 357 338 63 88 91 140 184 182 199 53 62 73 83 117 124 138 219 244 191 112 81 328 101 137 147
331 334 336 342 347 347 345 278 317 299 274 271 22 348 312 331 334 286 329 330 345 34 91 108 154 227 172 159 162 176 96 48 152 136 173 281 243 194 104 99 230 138 140 154
316 323 328 331 340 345 353 282 302 325 294 290 265 292 280 351 340 337 295 4 350 37 69 132 215 165 221 136 190 173 161 144 194 96 112 268 220 133 148 196 92 132 112 121
308 308 319 325 332 337 347 298 314 314 216 251 307 262 242 226 228 225 296 220 263 283 72 269 118 189 90 157 218 5 121 172 180 162 208 229 232 162 105 136 137 152 128 144
311 305 311 313 319 324 331 300 289 337 299 293 253 251 271 228 218 206 189 288 183 48 189 274 259 211 125 147 225 140 7 147 130 81 288 158 123 92 120 137 136 143 139 146
304 302 302 307 309 314 321 292 277 251 266 268 282 329 294 282 270 215 209 234 23 114 83 254 244 226 159 196 189 142 193 110 158 246 68 58 321 154 145 120 124 122 136 148
292 295 296 300 306 316 311 248 229 211 240 292 294 300 273 263 224 213 205 215 155 126 268 263 235 264 85 353 67 157 179 171 155 215 187 165 194 166 143 139 146 136 128 127
294 289 293 299 307 326 347 332 51 106 298 256 293 287 288 291 276 242 169 174 151 151 158 227 259 256 105 118 184 254 229 208 172 199 171 193 158 155 153 140 142 134 134 140
288 286 285 287 293 104 201 213 271 320 330 257 296 287 263 246 201 144 97 113 162 145 187 224 237 304 92 145 171 223 121 122 123 129 108 68 154 167 149 138 128 124 128 136
285 283 284 280 287 295 263 249 255 174 264 275 269 271 318 223 164 176 171 135 93 264 195 309 193 308 132 224 224 193 155 130 130 156 104 136 117 118 122 120 125 123 131 132
275 283 284 300 227 234 242 236 201 169 183 252 263 269 269 344 332 80 13 115 126 230 190 203 130 222 220 207 185 177 169 165 172 144 122 128 133 137 136 131 133 130 142 142
265 318 253 244 225 234 180 7 72 149 219 232 257 300 273 355 339 360 80 34 229 201 223 149 219 238 212 213 205 187 203 178 146 130 132 128 140 151 151 158 153 149 154 152
106 213 231 254 336 5 212 198 174 187 227 206 229 212 246 291 314 262 43 80 275 268 253 167 231 231 215 215 228 230 200 167 177 168 171 167 156 158 155 150 154 153 157 168
199 210 262 290 68 226 215 224 168 181 220 223 192 216 197 254 199 113 173 13 252 244 349 256 233 240 192 201 213 229 199 171 168 153 151 153 156 160 161 158 152 164 163 152
353 338 265 171 208 243 199 194 218 194 215 213 201 203 167 256 130 149 167 211 239 285 247 260 241 188 219 211 208 203 185 164 155 148 148 153 158 162 158 146 146 147 152 155
166 240 269 204 229 248 75 328 306 283 316 319 207 183 199 180 138 172 185 219 106 248 211 250 315 353 325 281 208 148 177 158 154 152 151 155 157 150 137 139 145 144 150 154
219 234 246 240 240 89 273 258 285 264 266 306 309 262 134 234 147 191 132 153 239 226 242 245 289 321 321 308 258 178 162 157 151 147 140 133 132 127 125 133 138 137 138 147
223 235 274 271 308 317 236 266 291 311 310 298 122 291 114 205 189 141 204 205 218 230 219 248 290 10 317 314 231 173 157 141 132 131 131 129 129 129 130 128 133 140 146 152
254 256 242 244 269 257 246 138 271 298 309 264 99 249 176 299 224 217 203 245 305 319 304 301 290 20 320 340 269 134 124 122 122 123 121 119 120 122 124 130 137 137 144 140